National Weather Service Raw Text Product

Displaying AFOS PIL: RWRIA Received: 2017-08-13 17:00 UTC


574 
ASUS43 KDMX 131706
RWRIA 

WEATHER ROUNDUP FOR IOWA
NATIONAL WEATHER SERVICE DES MOINES IA
1200 PM CDT SUN AUG 13 2017

NOTE: "FAIR" INDICATES FEW OR NO CLOUDS BELOW 12,000 FEET WITH NO
SIGNIFICANT WEATHER AND/OR OBSTRUCTIONS TO VISIBILITY.

* - THESE STATIONS ARE NOT NWS STATIONS...THUS NOT UNDER NWS
QUALITY CONTROL.  THEY ALSO DO NOT REPORT WEATHER SUCH 
AS PRECIPITATION OR FOG.  

IAZ001>003-012>014-020>022-031>034-043>046-131800-
   NORTHWEST IOWA
  
CITY           SKY/WX    TMP DP  RH WIND       PRES   REMARKS
CARROLL *      CLOUDY    68  66  94 SE8       30.01F                  
CHEROKEE *     CLOUDY    69  59  70 S13       29.98S                  
DENISON *      CLOUDY    66  63  88 S8        30.01F                  
LE MARS *      CLOUDY    72  61  68 S17G28    29.94F                  
ORANGE CITY *  PTSUNNY   70  63  78 S16       29.95F                  
SHELDON *      CLOUDY    68  59  73 S9G22     29.95S                  
SIOUX CITY     CLOUDY    70  65  84 S17       29.95F                  
SPENCER        CLOUDY    72  57  59 S15G26    29.98F                  
STORM LAKE *   CLOUDY    66  61  82 S12       30.00S                  
$$
 
IAZ055>058-069>071-079>083-090>094-131800-
   SOUTHWEST IOWA
  
CITY           SKY/WX    TMP DP  RH WIND       PRES   REMARKS
ATLANTIC *     CLOUDY    72  63  73 S6G13     30.01F                  
AUDUBON *      MOSUNNY   70  63  78 S6        30.03F                  
CLARINDA *     PTSUNNY   73  63  68 S8        30.03F                  
COUNCIL BLFS * PTSUNNY   70  66  88 S13       29.99F                  
CRESTON *      CLOUDY    73  59  60 S9G16     30.04F                  
HARLAN  *      CLOUDY    68  63  83 SE8       30.04F                  
LAMONI         MOSUNNY   75  58  55 S8        30.03F                  
RED OAK *      CLOUDY    72  63  73 S7        30.01F                  
SHENANDOAH *   CLOUDY    72  61  68 S7G13     30.01F                  
$$
 
IAZ047>049-059>061-072>074-084-131800-
   CENTRAL IOWA
  
CITY           SKY/WX    TMP DP  RH WIND       PRES   REMARKS
AMES           CLOUDY    68  64  87 SE3       30.03S                  
ANKENY *       CLOUDY    72  61  68 S6        30.04S                  
BOONE *        MOSUNNY   68  63  83 CALM      30.03S                  
CHARITON *     MOSUNNY   75  55  50 S9        30.03S                  
DES MOINES     CLOUDY    74  59  59 SE3       30.02S                  
GRINNELL*      CLOUDY    71  58  61 SE8       30.05F                  
KNOXVILLE *    CLOUDY    75  55  50 S9        30.02S                  
MARSHALLTOWN   LGT RAIN  68  60  75 S8        30.04S                  
NEWTON *       CLOUDY    72  59  64 SE7       30.04S                  
PELLA *        CLOUDY    76  55  48 SE6       30.04S                  
PERRY *        CLOUDY    70  62  78 CALM      30.03S                  
$$
 
IAZ004>006-015-016-023>025-035-036-131800-
   NORTH CENTRAL IOWA
  
CITY           SKY/WX    TMP DP  RH WIND       PRES   REMARKS
ALGONA *       CLOUDY    70  63  78 S14       30.00F                  
CLARION *      CLOUDY    68  63  83 SW12      30.03R                  
ESTHERVILLE    CLOUDY    68  62  81 S13       29.99S                  
FORT DODGE *   CLOUDY    70  57  64 S12       30.03F                  
MASON CITY     PTSUNNY   68  57  68 S8        30.04F                  
FOREST CITY *  PTSUNNY   68  55  64 S6        30.02F                  
WEBSTER CITY * MOSUNNY   68  61  77 S8        30.01F                  
IOWA FALLS *   CLOUDY    67  59  75 SE8       30.05S                  
$$

IAZ007>011-017>019-026>030-037>042-050>054-066-131800-
   NORTHEAST IOWA
  
CITY           SKY/WX    TMP DP  RH WIND       PRES   REMARKS
CEDAR RAPIDS   CLOUDY    68  61  78 S6        30.05F                  
CHARLES CITY * MOSUNNY   68  59  73 S9        30.05S                  
CLINTON *      PTSUNNY   73  57  57 SE6       30.07F                  
DECORAH *      CLOUDY    72  55  56 VRB6G14   30.05S                  
DUBUQUE        CLOUDY    71  55  56 S9        30.07F                  
MONTICELLO *   PTSUNNY   73  57  56 S7        30.06F                  
OELWEIN *      CLOUDY    68  59  73 S10       30.06F                  
WATERLOO       CLOUDY    71  55  56 S12       30.03F                  
$$
 
IAZ064-065-067-068-078-131800-
   EAST CENTRAL IOWA
  
CITY           SKY/WX    TMP DP  RH WIND       PRES   REMARKS
DAVENPORT      MOSUNNY   72  56  57 MISG      30.08F                  
IOWA CITY      CLOUDY    74  58  57 S8        30.06F                  
MT. PLEASANT * MOSUNNY   76  56  49 SE5       30.05F                  
MUSCATINE *    MOSUNNY   75  55  50 SE9       30.06F                  
QUAD CITIES    PTSUNNY   76  56  49 SE6       30.06F                  
$$
 
IAZ062-063-075>077-085>089-095>099-131800-
   SOUTHEAST IOWA
  
CITY           SKY/WX    TMP DP  RH WIND       PRES   REMARKS
BURLINGTON     MOSUNNY   74  59  59 S9        30.06F                  
FAIRFIELD *    PTSUNNY   77  54  44 SE8       30.04F                  
FORT MADISON * MOSUNNY   73  61  64 S10       30.06F                  
KEOKUK *       SUNNY     75  57  53 SE9       30.04F                  
OSKALOOSA *      N/A     76  58  52 S7        30.05S                  
CENTERVILLE *    N/A     77  57  50 E7        30.05F                  
OTTUMWA        MOSUNNY   77  56  48 S7        30.04S                  
WASHINGTON *   MOSUNNY   73  59  60 SE7       30.06F                  
$$

ABBREVIATIONS USED IN REMARKS
   TC - TEMPERATURES IN CELSIUS
  WCI - WIND CHILL INDEX
   HX - HEAT INDEX
  VSB - VISIBILITY  
$$

  

064 
ASUS43 KDMX 131701
RWRIA 

WEATHER ROUNDUP FOR IOWA
NATIONAL WEATHER SERVICE DES MOINES IA
1200 PM CDT SUN AUG 13 2017

NOTE: "FAIR" INDICATES FEW OR NO CLOUDS BELOW 12,000 FEET WITH NO
SIGNIFICANT WEATHER AND/OR OBSTRUCTIONS TO VISIBILITY.

* - THESE STATIONS ARE NOT NWS STATIONS...THUS NOT UNDER NWS
QUALITY CONTROL.  THEY ALSO DO NOT REPORT WEATHER SUCH 
AS PRECIPITATION OR FOG.  

IAZ001>003-012>014-020>022-031>034-043>046-131800-
   NORTHWEST IOWA
  
CITY           SKY/WX    TMP DP  RH WIND       PRES   REMARKS
CARROLL *      CLOUDY    68  66  94 SE8       30.01F                  
CHEROKEE *     CLOUDY    69  59  70 S13       29.98S                  
DENISON *      CLOUDY    66  63  88 S8        30.01F                  
LE MARS *      CLOUDY    72  61  68 S17G28    29.94F                  
ORANGE CITY *  PTSUNNY   70  63  78 S16       29.95F                  
SHELDON *      CLOUDY    68  59  73 S9G22     29.95S                  
SIOUX CITY     CLOUDY    70  65  84 S17       29.95F                  
SPENCER        CLOUDY    72  57  59 S15G26    29.98F                  
STORM LAKE *   CLOUDY    66  61  82 S12       30.00S                  
$$
 
IAZ055>058-069>071-079>083-090>094-131800-
   SOUTHWEST IOWA
  
CITY           SKY/WX    TMP DP  RH WIND       PRES   REMARKS
ATLANTIC *     CLOUDY    72  63  73 S6G13     30.01F                  
AUDUBON *      MOSUNNY   70  63  78 S6        30.03F                  
CLARINDA *     PTSUNNY   73  63  68 S8        30.03F                  
COUNCIL BLFS * PTSUNNY   70  66  88 S13       29.99F                  
CRESTON *      CLOUDY    73  59  60 S9G16     30.04F                  
HARLAN  *      CLOUDY    68  63  83 SE8       30.04F                  
LAMONI         MOSUNNY   75  58  55 S8        30.03F                  
RED OAK *      CLOUDY    72  63  73 S7        30.01F                  
SHENANDOAH *   CLOUDY    72  61  68 S7G13     30.01F                  
$$
 
IAZ047>049-059>061-072>074-084-131800-
   CENTRAL IOWA
  
CITY           SKY/WX    TMP DP  RH WIND       PRES   REMARKS
AMES           CLOUDY    68  64  87 SE3       30.03S                  
ANKENY *       CLOUDY    72  61  68 S6        30.04S                  
BOONE *        MOSUNNY   68  63  83 CALM      30.03S                  
CHARITON *     MOSUNNY   75  55  50 S9        30.03S                  
DES MOINES     CLOUDY    74  59  59 SE3       30.02S                  
GRINNELL*      CLOUDY    71  58  61 SE8       30.05F                  
KNOXVILLE *    CLOUDY    75  55  50 S9        30.02S                  
MARSHALLTOWN   LGT RAIN  68  60  75 S8        30.04S                  
NEWTON *       CLOUDY    72  59  64 SE7       30.04S                  
PELLA *        CLOUDY    76  55  48 SE6       30.04S                  
PERRY *        CLOUDY    70  62  78 CALM      30.03S                  
$$
 
IAZ004>006-015-016-023>025-035-036-131800-
   NORTH CENTRAL IOWA
  
CITY           SKY/WX    TMP DP  RH WIND       PRES   REMARKS
ALGONA *       CLOUDY    70  63  78 S14       30.00F                  
CLARION *      CLOUDY    68  63  83 SW12      30.03R                  
ESTHERVILLE    CLOUDY    68  62  81 S13       29.99S                  
FORT DODGE *   CLOUDY    70  57  64 S12       30.03F                  
MASON CITY     PTSUNNY   68  57  68 S8        30.04F                  
FOREST CITY *  PTSUNNY   68  55  64 S6        30.02F                  
WEBSTER CITY * MOSUNNY   68  61  77 S8        30.01F                  
IOWA FALLS *   CLOUDY    67  59  75 SE8       30.05S                  
$$

IAZ007>011-017>019-026>030-037>042-050>054-066-131800-
   NORTHEAST IOWA
  
CITY           SKY/WX    TMP DP  RH WIND       PRES   REMARKS
CEDAR RAPIDS   CLOUDY    68  61  78 S6        30.05F                  
CHARLES CITY * MOSUNNY   68  59  73 S9        30.05S                  
CLINTON *      PTSUNNY   73  57  57 SE6       30.07F                  
DECORAH *      CLOUDY    72  55  56 VRB6G14   30.05S                  
DUBUQUE        CLOUDY    71  55  56 S9        30.07F                  
MONTICELLO *   PTSUNNY   73  57  56 S7        30.06F                  
OELWEIN *      CLOUDY    68  59  73 S10       30.06F                  
WATERLOO       CLOUDY    71  55  56 S12       30.03F                  
$$
 
IAZ064-065-067-068-078-131800-
   EAST CENTRAL IOWA
  
CITY           SKY/WX    TMP DP  RH WIND       PRES   REMARKS
DAVENPORT      MOSUNNY   72  56  57 MISG      30.08F                  
IOWA CITY      CLOUDY    74  58  57 S8        30.06F                  
MUSCATINE *    MOSUNNY   75  55  50 SE9       30.06F                  
QUAD CITIES    PTSUNNY   76  56  49 SE6       30.06F                  
$$
 
IAZ062-063-075>077-085>089-095>099-131800-
   SOUTHEAST IOWA
  
CITY           SKY/WX    TMP DP  RH WIND       PRES   REMARKS
BURLINGTON     MOSUNNY   74  59  59 S9        30.06F                  
FAIRFIELD *    PTSUNNY   77  54  44 SE8       30.04F                  
FORT MADISON * MOSUNNY   73  61  64 S10       30.06F                  
KEOKUK *       SUNNY     75  57  53 SE9       30.04F                  
OSKALOOSA *      N/A     76  58  52 S7        30.05S                  
OTTUMWA        MOSUNNY   77  56  48 S7        30.04S                  
WASHINGTON *   MOSUNNY   73  59  60 SE7       30.06F                  
$$

ABBREVIATIONS USED IN REMARKS
   TC - TEMPERATURES IN CELSIUS
  WCI - WIND CHILL INDEX
   HX - HEAT INDEX
  VSB - VISIBILITY  
$$